• MPC Preparation (Info)

  • MPEC 2000-C29 : 2000 CO33

    The following Minor Planet Electronic Circular may be linked-to from your own Web pages, but must not otherwise be redistributed electronically.

    A form allowing access to any MPEC is at the bottom of this page.


    Read MPEC 2000-C28 Read MPEC 2000-C30


    M.P.E.C. 2000-C29                                Issued 2000 Feb. 6, 17:25 UT
    
         The Minor Planet Electronic Circulars contain information on unusual
             minor planets and routine data on comets.  They are published
       on behalf of Commission 20 of the International Astronomical Union by the
              Minor Planet Center, Smithsonian Astrophysical Observatory,
                              Cambridge, MA 02138, U.S.A.
    
                 Prepared using the Tamkin Foundation Computer Network
    
                 BMARSDEN@CFA.HARVARD.EDU or GWILLIAMS@CFA.HARVARD.EDU
              URL http://cfa-www.harvard.edu/iau/mpc.html  ISSN 1523-6714
    
                                       2000 CO33
    
    Observations:
         K00C33O* C2000 02 03.37586 13 05 01.70 +17 29 04.1          17.0        704
         K00C33O  C2000 02 03.39013 13 04 59.38 +17 22 37.2          17.1        704
         K00C33O  C2000 02 03.40438 13 04 57.01 +17 16 10.8          17.3        704
         K00C33O  C2000 02 03.41859 13 04 54.60 +17 09 44.7          17.8        704
         K00C33O  C2000 02 03.43285 13 04 52.22 +17 03 16.6          17.4        704
         K00C33O  C2000 02 03.99341 13 03 52.36 +12 45 16.1          16.8 R      046
         K00C33O  C2000 02 03.99447 13 03 52.20 +12 44 47.4                      046
         K00C33O  C2000 02 03.99487 13 03 52.18 +12 44 35.8                      046
         K00C33O  C2000 02 03.99644 13 03 51.92 +12 43 52.9          16.9 R      046
         K00C33O  C2000 02 03.99684 13 03 51.86 +12 43 41.9                      046
         K00C33O  C2000 02 03.99725 13 03 51.77 +12 43 30.6          17.0 R      046
         K00C33O  C2000 02 04.00908 13 03 49.91 +12 38 01.9                      557
         K00C33O  C2000 02 04.00948 13 03 49.81 +12 37 49.8                      557
         K00C33O  C2000 02 04.00990 13 03 49.76 +12 37 38.0                      557
         K00C33O  C2000 02 04.01033 13 03 49.71 +12 37 26.7                      557
         K00C33O  C2000 02 04.01075 13 03 49.67 +12 37 15.4                      557
         K00C33O  C2000 02 04.29732 13 03 20.31 +10 25 06.9          17.3        704
         K00C33O  C2000 02 04.31176 13 03 18.23 +10 18 26.0          17.2        704
         K00C33O  C2000 02 04.32619 13 03 16.09 +10 11 45.7          17.4        704
         K00C33O  C2000 02 04.34054 13 03 13.90 +10 05 08.3          17.2        704
         K00C33O  C2000 02 04.35487 13 03 11.68 +09 58 30.6          16.8        704
         K00C33O  C2000 02 04.35619 13 03 12.06 +09 57 59.4          17.4 V      651
         K00C33O  C2000 02 04.35731 13 03 11.88 +09 57 27.9                      651
         K00C33O  C2000 02 04.35882 13 03 11.65 +09 56 46.5                      651
         K00C33O  C2000 02 04.39251 13 03 05.61 +09 41 05.8          17.0        704
         K00C33O  C2000 02 04.40674 13 03 03.26 +09 34 30.7          16.8        704
         K00C33O  C2000 02 04.42101 13 03 00.86 +09 27 54.7          16.5        704
         K00C33O  C2000 02 04.43538 13 02 58.40 +09 21 15.8          16.5        704
         K00C33O  C2000 02 04.58915 13 02 46.97 +08 12 36.9          17.5 R      422
         K00C33O  C2000 02 04.59143 13 02 46.61 +08 11 33.6          17.1 R      422
         K00C33O  C2000 02 04.63189 13 02 40.48 +07 52 50.7          17.2 R      422
         K00C33O  C2000 02 04.63230 13 02 40.43 +07 52 39.8          17.1 R      422
         K00C33O  C2000 02 05.28346 13 01 26.40 +02 48 55.1          18.5 V      739
         K00C33O  C2000 02 05.28457 13 01 26.11 +02 48 27.0          17.0 V      739
         K00C33O  C2000 02 05.28573 13 01 26.10 +02 47 50.8          17.1 V      739
         K00C33O  C2000 02 05.64944 13 00 42.91 +00 05 12.2          17.8        422
         K00C33O  C2000 02 05.65092 13 00 42.67 +00 04 31.8          17.7        422
         K00C33O  C2000 02 05.65141 13 00 42.59 +00 04 19.3          17.5        422
         K00C33O  C2000 02 06.12113 12 59 43.98 -03 29 08.6                      104
         K00C33O  C2000 02 06.12231 12 59 43.77 -03 29 40.6                      104
         K00C33O  C2000 02 06.12492 12 59 43.36 -03 30 49.5          17.7 V      104
    
    Observer details:
    046 Klet.  Observers M. Tichy, Z. Moravec.  0.57-m f/5.2 reflector + CCD.
    104 San Marcello Pistoiese.  Observers L. Tesi, A. Boattini, M. Tombelli.
        Measurers G. Forti, L. Tesi, A. Boattini, M. Tombelli.  0.40-m f/5
        reflector + CCD.
    422 Loomberah.  Observer G. J. Garradd.  0.45-m f/5.4 reflector + CCD.
    557 Ondrejov.  Observers P. Pravec, P. Kusnirak.  0.65-m f/3.6 reflector + CCD.
    651 Grasslands Observatory, Tucson.  Observer J. E. McGaha.  0.62-m f/5.1
        reflector + CCD.
    704 Lincoln Laboratory ETS, New Mexico.  Observers M. Blythe, F. Shelly,
        M. Bezpalko, M. Elowitz, R. Huber.  Measurers J. Stuart, H. Viggh,
        R. Sayer, J. B. Evans.  1.0-m f/2.15 reflector + CCD.
    739 Sunflower Observatory, Olathe.  Observer L. Robinson.  0.25-m
        Schmidt-Cassegrain + CCD.
    
    Orbital elements:
    2000 CO33                                                            PHA 0.006
    Epoch 2000 Jan. 17.0 TT = JDT 2451560.5                 Williams
    M 354.61946              (2000.0)            P               Q
    n   0.27539471     Peri.  178.82634     -0.75032995     -0.62938284
    a   2.3397295      Node   319.73507     +0.60393655     -0.52825876
    e   0.5657133      Incl.   18.23027     +0.26882264     -0.56992975
    P   3.58           H   21.6           G   0.15
    From 41 observations 2000 Feb. 3-6.
    
    Ephemeris:
    2000 CO33                a,e,i = 2.34, 0.57, 18                  q = 1.0161
    Date    TT    R. A. (2000) Decl.     Delta      r     Elong.  Phase     V
    2000 01 27    13 17.74   +57 46.3    0.083    1.023   116.0    59.9    18.4
    2000 01 28    13 16.17   +54 12.4    0.077    1.022   116.9    59.2    18.2
    2000 01 29    13 14.54   +50 07.5    0.072    1.021   118.0    58.4    18.0
    2000 01 30    13 12.84   +45 27.5    0.068    1.020   119.1    57.6    17.9
    2000 01 31    13 11.10   +40 08.9    0.063    1.019   120.3    56.6    17.7
    2000 02 01    13 09.32   +34 09.8    0.060    1.018   121.4    55.7    17.6
    2000 02 02    13 07.49   +27 31.4    0.057    1.017   122.3    55.0    17.4
    2000 02 03    13 05.64   +20 19.3    0.055    1.017   122.9    54.5    17.3
    2000 02 04    13 03.77   +12 44.3    0.054    1.016   123.0    54.5    17.3
    2000 02 05    13 01.87   +05 01.3    0.054    1.016   122.6    54.9    17.3
    2000 02 06    12 59.96   -02 33.2    0.055    1.016   121.6    55.7    17.4
    2000 02 07    12 58.03   -09 44.1    0.057    1.016   120.3    56.9    17.5
    2000 02 08    12 56.09   -16 20.9    0.060    1.017   118.8    58.2    17.6
    2000 02 09    12 54.15   -22 18.1    0.063    1.017   117.2    59.6    17.8
    2000 02 10    12 52.20   -27 34.5    0.067    1.018   115.7    60.9    18.0
    2000 02 11    12 50.25   -32 12.1    0.072    1.019   114.2    62.1    18.1
    2000 02 12    12 48.30   -36 14.4    0.077    1.019   112.9    63.1    18.3
    2000 02 13    12 46.35   -39 45.6    0.082    1.021   111.8    63.9    18.5
    2000 02 14    12 44.41   -42 49.8    0.088    1.022   110.8    64.6    18.7
    2000 02 15    12 42.47   -45 30.8    0.094    1.023   109.9    65.1    18.8
    2000 02 16    12 40.53   -47 52.0    0.100    1.025   109.2    65.5    19.0
    
    2000 02 21    12 30.91   -56 07.9    0.131    1.035   107.3    65.8    19.6
    2000 02 26    12 21.31   -60 52.1    0.163    1.049   106.9    64.5    20.1
    2000 03 02    12 11.75   -63 42.3    0.196    1.067   107.6    62.4    20.4
    2000 03 07    12 02.47   -65 21.9    0.228    1.087   108.8    59.8    20.7
    2000 03 12    11 53.90   -66 13.0    0.259    1.111   110.4    57.0    21.0
    2000 03 17    11 46.52   -66 28.1    0.290    1.137   112.2    54.1    21.2
    2000 03 22    11 40.61   -66 15.3    0.321    1.165   114.3    51.2    21.4
    2000 03 27    11 36.35   -65 39.7    0.351    1.196   116.4    48.4    21.5
    2000 04 01    11 33.84   -64 44.9    0.381    1.228   118.6    45.6    21.7
    2000 04 06    11 33.09   -63 34.3    0.411    1.261   120.8    43.0    21.8
    
    Gareth V. Williams           (C) Copyright 2000 MPC           M.P.E.C. 2000-C29
    

    Read MPEC 2000-C28 Read MPEC 2000-C30


    MPEC number:

    Enter an MPEC number in one of the following forms:

    • 1997-B01 (the full form)
    • J97B01 (the packed version of the full form)
    • B01 (the abbreviated form)